{"data":{"norad_id":81615,"intl_designator":"","name":"UNKNOWN","alt_names":[],"object_type":"UNKNOWN","status":"UNKNOWN","operator":null,"country":null,"launch_date":null,"launch_site_code":null,"launch_vehicle":null,"mission":null,"orbit_class":"UNKNOWN","rcs_meters":null,"size_class":null,"mass_kg":null,"dimensions":null,"purposes":[],"wikipedia_slug":null,"has_3d_model":false,"image_url":null,"decayed_at":null,"tle_current":{"epoch":"2026-05-24T03:26:49.440192Z","epoch_age_seconds":159785,"freshness":"FRESH","line1":"1 81615U          26144.14362778  .00002571  00000+0  93437-3 0  9999","line2":"2 81615  65.8292  43.4973 0766754  60.4637 307.0621 13.34759447604530","mean_motion":13.34759447,"eccentricity":0.0766754,"inclination_deg":65.8292,"raan_deg":43.4973,"arg_perigee_deg":60.4637,"mean_anomaly_deg":307.0621,"bstar":0.00093437,"rev_number":60453,"period_min":107.88460821435,"perigee_km":553.262206981,"apogee_km":1704.4669008773,"semimajor_km":7507.0015539291,"source":"CELESTRAK","updated_at":"2026-05-25T13:38:11.079358Z"}}}